Погода в Анне

Погода в Анне : погода сейчас, прогноз погоды и архив. Всё, что Вы хотите узнать о погоде в Анне!

Хотите узнать прогноз погоды в Анне? Тогда Вам сюда: Погода в Анне

Поиск расширенной информации на нашем сайте:

Другие новости

Новости СМИ2

Главная страница сайта

Новости сайта

03.07.2017

Напоминаем, что на нашем специализированном сайте Метеоцентр.Азия вы можете получить высокодетализированные автоматические прогнозы погоды по пунктам России, СНГ и мира в авиационном формате (включающие направление и скорость ветра, видимость, явления погоды, количество и форму облачности, нижнюю и верхнюю границу облачности).

Рекомендуем: Здесь яблочный уксус для похудения купить можно дешевле, чем в Китае!

Погода в Анне - сегодня

Время (UTC), дата Ветер
(°,м/с) 
Видим.   Явления Облачность Т
(°С)
Тd
(°С)
f(%) Тe
(°С)
Pmin
(гПа)
dP
(гПа)
Po
(мм)
O2
(г/м3)
Тmin Tmax R s Состояние
почвы
06 15.08.17 тихо ()   10 км    4/0 верхняя 
[Ci fib]
+24.6 +14.8 54 +33  1019.1  751  275           
09 15.08.17 270 (З) 10 км    6/4 600 м верхняя 
[Cu hum|Ci sp]
+29.9 +13.6 37 +36  1018.7  751  270           
12 15.08.17 020 (С) 10 км    6/5 600 м кучево-дожд., верхняя 
[Cb calv|Ci sp]
+30.8 +14.2 36 +38  1018  -0.7  750  269           
15 15.08.17 020 (С) 10 км    8/6 600 м кучево-дожд., верхняя 
[Cb calv|Ci sp]
+27 +17.7 57 +41  1018.7  0.5  751  271    +31.8       
18 15.08.17 020 (С) 10 км    8/0 верхняя 
[Ci sp]
+23.2 +16.1 64 +34  1020  752  276           
21 15.08.17 010 (С) 10 км    3/0 верхняя 
[Ci sp]
+21.2 +17.1 77 +34  1020.7  0.6  752  277           
00 16.08.17 020 (С) 10 км    ясно 
+18.5 +16.8 90 +31  1021.1  0.1  752  280           
03 16.08.17 020 (С) 10 км    3/0 средняя 
[Ac trans]
+17.2 +16.4 95 +29  1021.9  0.8  753  282  +17.2         
06 16.08.17 030 (СВ) 10 км    3/0 средняя 
[Ac trans]
+21.8 +16.2 70 +32  1022.4  0.8  753  278           
09 16.08.17 120 (ЮВ) 10 км    8/5 600 м средняя, верхняя 
[Cu hum|Ac trans|Ci sp]
+27.9 +10.2 33 +29  1021.8  -0.2  753  274           
12 16.08.17 080 (В) 10 км    5/3 600 м верхняя 
[Cu hum|Cc]
+29.3 +11.3 33 +32  1021.8  753  272           
15 16.08.17 080 (В) 10 км    3/3 600 м 
[Cu hum]
+27.9 +11.4 36 +31  1021.1  -0.7  753  273    +29.6       
18 16.08.17 020 (С) 10 км    ясно 
+22.8 +14.3 59 +30  1022.4  0.9  753  277           
21 16.08.17 050 (СВ) 10 км    ясно 
+20 +14.5 71 +28  1023  0.5  754  280           
00 17.08.17 070 (В) 10 км    ясно 
+18.2 +13.8 75 +26  1023.4  0.2  754  282           
03 17.08.17 070 (В) 10 км    ясно 
+17.6 +13 74 +24  1023.8  0.4  754  283  +16.9         
06 17.08.17 050 (СВ) 10 км    ясно 
+23.3 +12.1 49 +27  1023.5  754  278           
09 17.08.17 090 (В) 10 км    ясно 
+28.3 +8.2 28 +28  1022.6  -0.5  754  274           
12 17.08.17 080 (В) 4{10}  10 км    ясно 
+29.8 +8.8 27 +30  1021.8  -0.7  753  272           
15 17.08.17 080 (В) 10 км    1/1 600 м 
[Cu hum]
+29.1 +8.7 28 +29  1020.9  -1  752  273    +30.3       
18 17.08.17 080 (В) 4{10}  10 км    ясно 
+29.8 +8.8 27 +30  1021.8  -0.7  753  272           
21 17.08.17 070 (В) 10 км    ясно 
+21.2 +10 49 +22  1022.5  0.2  753  280           
00 18.08.17 080 (В) 10 км    ясно 
+17.6 +10.7 64 +21  1023.1  0.3  754  283           
03 18.08.17 050 (СВ) 10 км    3/3 600 м 
[Cu hum]
+17.2 +11.3 68 +22  1023.4  0.3  754  284  +15.5         
06 18.08.17 090 (В) 10 км    ясно 
+23 +13.4 55 +29  1023.1  0.1  754  278           
Время (UTC), дата Ветер
(°,м/с) 
Видим.   Явления Облачность Т
(°С)
Тd
(°С)
f(%) Тe
(°С)
Pmin
(гПа)
dP
(гПа)
Po
(мм)
O2
(г/м3)
Тmin Tmax R s Состояние
почвы

Для получения пояснительной информации подведите курсор к названию столбца.

ПОГОДА в Анне - архив

Всё, что Вы хотите узнать о погоде в Анне - удобно и подробно!

Выберите нужную дату (начиная с 1 января 2015* года) и нажмите кнопку "Найти".
Будут отображены архивные сводки погоды по пункту Анна, начиная с указанной даты.


Отображать данные в формате CSV (для использования в таблицах Excel)


Внимание! Наш архив погоды предназначен исключительно для личного некоммерческого использования в познавательных целях. Если Вам необходимы официальные справки о состоянии погоды (для производственных, юридических, коммерческих и т.п. целей), обращайтесь в органы Росгидромета.

*Примечание: данная дата относится к архиву по метеостанциям СССР (Россия, СНГ, Балтия).
Архив по метеостанциям Зарубежной Европы и Азии (кроме Китая) хранится 10 дней, по другим регионам земного шара (Китай, Африка, Америка, Австралия, Океания) - 1 день.

Анна - район местоположения метеостанции


Название, широта, долгота, высота метеостанции:
Анна 51.5°ш. 40.4°д. 154 м над ур. моря [Российская Федерация]

Дополнительная информация

В oтличие oт бoльшинства пoгoдных сайтoв мы публикуем пoдрoбную метеoинфoрмацию в детальнoм прoфессиoнальнoм фoрмате.

Характеристики температуры и влажнoсти вoздуха измеряются на высoте 2 м в тени вдали oт зданий и деревьев.
Скoрoсть ветра измеряется на высoте 10 м (на урoвне рoста челoвека скoрoсть ветра ниже в 1.5-2 раза). Если метеoстанция нахoдится в гoрoде или в лесу, тo скoрoсть ветра занижена на 2-4 м/с пo сравнению с oткрытым местoм. Скoрoсть ветра над акватoриями крупных рек и oзёр, а также на вершинах хoлмoв на 2-5 м/с выше, чем в oбычных услoвиях.
Атмoсфернoе давление в разных тoчках местнoсти мoжет значительнo oтличаться oт давления на метеoстанции, в зависимoсти oт услoвий рельефа (при пoдъёме на 10 м давление пoнижается примернo на 1 мм рт.ст.).